Flag for Germany Weather past 2 weeks in Rheda-Wiedenbrück, North Rhine-Westphalia, Germany

Now
41 °F

Sunny.


Feels Like: 37 °F
Forecast: 34 / 57 °F
Wind: 6 mph from Southwest

Location: Paderborn / Lippstadt

Current Time: Apr 28, 2015 at 9:07:04 PM

Latest Report: Apr 28, 2015 at 8:20 PM


Visibility: 10 mi

Pressure: 30.07 "Hg

Humidity: 76%

Dew point: 34 °F

Location of Rheda-WiedenbrückLocation

Historic Weather in Rheda-Wiedenbrück — Graph

°F

Rheda-Wiedenbrück temperature yesterday

Maximum temperature yesterday: 50 °F (at 12:20 AM)
Minimum temperature yesterday: 39 °F (at 11:50 PM)
Average temperature yesterday: 44 °F

Past Weeks' High & Low Weather Summary

 TemperatureHumidityPressure
High70 °F (Apr 15, 2:20 PM)100% (Apr 26, 10:50 PM)30.45 "Hg (Apr 26, 10:50 PM)
Low28 °F (Apr 19, 6:50 AM)21% (Apr 21, 4:50 PM)29.59 "Hg (Apr 27, 4:20 AM)
Average48 °F66%30.07 "Hg
* Reported Apr 13 7:20 PM — Apr 28 7:50 PM, Rheda-Wiedenbrück, Weather by CustomWeather, © 2015

Note: Actual official high and low records may vary slightly from our data, if they occured in-between our weather recording intervals... More about our weather records

Advertising

Rheda-Wiedenbrück weather history for previous 24 hours

 ConditionsComfort  
Time TempWeatherWind HumidityBarometerVisibility
7:50 PM
Tue, Apr 28
43 °FSunny.8 mph66%30.07 "Hg10 mi
7:20 PM45 °FSunny.10 mph66%30.07 "Hg10 mi
6:50 PM45 °FPassing clouds.9 mph61%30.07 "HgN/A
6:20 PM45 °FSunny.9 mph66%30.07 "Hg10 mi
5:50 PM41 °FSprinkles. Scattered clouds.14 mph76%30.07 "HgN/A
5:20 PM45 °FScattered showers. Broken clouds.7 mph76%30.04 "HgN/A
4:50 PM43 °FScattered clouds.8 mph81%30.04 "HgN/A
4:20 PM39 °FRain showers. Broken clouds.15 mph87%30.04 "HgN/A
3:50 PM46 °FScattered showers. Broken clouds.9 mph66%30.01 "HgN/A
3:20 PM48 °FScattered showers. Scattered clouds.12 mph54%29.98 "HgN/A
2:50 PM50 °FScattered showers. Scattered clouds.9 mph43%29.98 "HgN/A
2:20 PM50 °FPassing clouds.12 mph43%29.98 "HgN/A
1:50 PM48 °FPassing clouds.8 mph43%29.98 "HgN/A
1:20 PM48 °FPassing clouds.8 mph37%29.98 "HgN/A
12:50 PM48 °FPassing clouds.7 mph40%29.95 "HgN/A
12:20 PM45 °FPassing clouds.9 mph49%29.98 "HgN/A
11:50 AM45 °FPassing clouds.10 mph57%29.95 "HgN/A
11:20 AM43 °FPassing clouds.8 mph57%29.95 "HgN/A
10:50 AM43 °FSunny.7 mph61%29.95 "Hg10 mi
10:20 AM41 °FPassing clouds.6 mph66%29.95 "HgN/A
9:50 AM39 °FSunny.5 mph70%29.95 "Hg10 mi
9:20 AM37 °FPassing clouds.6 mph75%29.92 "HgN/A
8:50 AM37 °FSunny.5 mph81%29.92 "Hg10 mi
8:20 AM34 °FSunny.5 mph93%29.92 "Hg10 mi
7:50 AM34 °FSunny.5 mph87%29.89 "Hg10 mi
7:20 AM32 °FSunny.5 mph87%29.89 "Hg10 mi
6:50 AM30 °FClear.6 mph93%29.89 "Hg10 mi
6:20 AM30 °FClear.3 mph93%29.86 "Hg10 mi
5:20 AM30 °FClear.5 mph93%29.86 "Hg10 mi
4:50 AM30 °FClear.3 mph93%29.86 "Hg10 mi
4:20 AM32 °FClear.3 mph93%29.86 "Hg10 mi
3:50 AM32 °FClear.3 mph93%29.83 "Hg10 mi
3:20 AM34 °FClear.2 mph87%29.83 "Hg10 mi
2:50 AM34 °FClear.2 mph87%29.83 "Hg10 mi
2:20 AM36 °FClear.2 mph87%29.83 "Hg10 mi
1:50 AM36 °FClear.2 mph87%29.83 "Hg10 mi
1:20 AM36 °FPassing clouds.3 mph93%29.83 "HgN/A
12:50 AM37 °FPassing clouds.5 mph87%29.83 "HgN/A
12:20 AM39 °FPassing clouds.7 mph81%29.80 "HgN/A
11:50 PM
Mon, Apr 27
39 °FPassing clouds.5 mph87%29.80 "HgN/A
11:20 PM41 °FPassing clouds.5 mph81%29.80 "HgN/A
10:50 PM41 °FPassing clouds.2 mph87%29.80 "HgN/A
10:20 PM43 °FPassing clouds.3 mph87%29.80 "HgN/A
9:50 PM43 °FPassing clouds.1 mph93%29.80 "HgN/A
9:20 PM43 °FScattered clouds.1 mph93%29.80 "HgN/A
Weather by CustomWeather, © 2015

See weather overviewHow to use our weather pages